Location: Boiro
(42.6475°N, 8.8834°W)
Time: 17:56:39
(UTC+01:00)

Altair - Pass Details

Date: 06 December 2021
Orbit: 1501 x 1683 km, 47.2° (Epoch: 25 January)

Event Time Altitude Azimuth Distance (km) Brightness Sun altitude
Rises 23:43:37 0° 294° (WNW) 4,655 10.5 -60.7°
Reaches altitude 10° 23:47:03 10° 285° (WNW) 3,660 9.7 -61.2°
Enters shadow 23:47:21 11° 284° (WNW) 3,575 9.7 -61.2°
Maximum altitude 23:54:47 32° 227° (SW) 2,354 - -62.3°
Drops below altitude 10° 00:02:33 10° 169° (S) 3,661 - -63.4°
Sets 00:06:00 0° 159° (SSE) 4,656 - -63.8°
